Vertical_Velocity
-0 0 0 2 -2 -1 1 -2 -3 -1 -0 -3 -3 -2 -2 1 3 1 -0 3 -4 0 -2 -2 -1 -3 2
0 -1 -0 -0 -3 0 -2 -3 -2 -3 -2 -3 -2 -3 -3 -2 -2 -0 0 0 2 -0 2 6 -1 -1 -1
0 -2 0 -2 -1 -0 0 -1 -1 -2 -3 -3 -4 -2 -2 -2 -0 -2 -1 0 1 1 -2 2 1 1 -0
0 -1 -1 -0 0 -1 -0 -0 -0 1 1 -2 -2 -2 -1 -1 -1 -1 -1 -0 0 -1 -0 -4 3 -1 3
-1 -1 -0 -0 -0 -1 -1 -2 -1 0 0 -1 -1 -0 1 1 -0 -1 -1 -0 -2 -4 -3 -1 -2 -2 2
-0 -0 -0 -0 -1 -1 -0 -0 -2 1 -1 -3 -0 -1 -1 -2 -2 -3 -2 -1 -0 0 1 -0 0 -0 -1
-2 -1 -0 -0 0 -2 -1 -0 -0 -1 -1 -2 -1 -2 0 1 1 1 1 -0 -1 -1 -2 -1 -0 -1 -2
-1 -1 -1 -1 -2 0 -0 -0 -0 -1 -2 -3 -2 -0 -1 -1 -1 -1 -2 -1 -1 0 -1 -1 -0 -0 -0
0 -0 -0 -0 -1 -0 -1 -2 -2 -1 -2 -1 -2 -2 -1 -1 -1 -1 0 -0 0 0 0 -0 -0 0 1
-1 -1 -0 -0 -0 -1 -1 -1 -1 -1 -2 -1 -1 -0 -0 -1 -2 -2 -2 -1 -0 1 1 2 0 -1 -2
-1 0 0 -0 -0 -1 -1 -1 -2 -1 -1 -0 -2 -1 -1 -2 -4 -3 -1 -2 -2 -1 -1 -1 -1 -1 -1
1 -0 -1 -1 -1 -1 -1 -1 -2 -2 -1 -1 -0 -2 -1 -1 -3 -2 -1 -2 -2 -4 -4 -1 0 -1 1
-1 -1 -1 -1 -1 -0 -1 -2 -2 -2 -3 -1 -0 -0 -1 -1 -1 -3 -2 4 -1 -2 -1 -1 -3 -2 1
-1 -0 -0 -1 -1 -1 -1 -0 -1 -5 -2 -0 -0 0 -0 -2 -2 2 -1 -7 -1 -3 1 3 1 -3 -5
-1 -1 0 0 0 0 -0 -1 -1 -3 -5 -3 -3 -2 -0 -2 -0 -1 -2 -1 1 -2 -7 1 0 -0 -0
-2 -1 -1 -1 -1 -2 -2 -1 0 -2 -1 -4 -3 -1 -3 4 1 1 -5 -3 -2 -3 -3 -3 4 2 -1
-1 -1 -0 -0 0 -1 -1 0 0 -0 -2 -2 -2 -3 -4 -0 1 4 -3 1 -2 1 -4 -3 -5 9 -4
Height
3075 3073 3071 3069 3067 3065 3062 3060 3057 3055 3052 3049 3046 3045 3045 3045 3046 3046 3045 3046 3045 3046 3047 3048 3048 3048 3049
3070 3068 3066 3064 3062 3060 3057 3054 3052 3049 3046 3044 3042 3040 3040 3039 3039 3039 3039 3039 3039 3040 3041 3042 3041 3041 3043
3064 3063 3061 3059 3057 3055 3052 3050 3047 3045 3042 3039 3038 3036 3034 3033 3033 3033 3033 3033 3034 3033 3034 3034 3034 3035 3036
3059 3058 3056 3054 3052 3049 3047 3045 3042 3040 3037 3035 3033 3031 3030 3029 3029 3028 3027 3027 3027 3027 3027 3028 3028 3028 3029
3055 3053 3051 3049 3047 3045 3042 3039 3037 3034 3031 3029 3027 3025 3023 3022 3022 3021 3020 3019 3020 3020 3019 3020 3020 3020 3021
3050 3048 3046 3043 3041 3039 3036 3034 3032 3029 3025 3023 3021 3019 3017 3015 3013 3012 3011 3010 3010 3010 3011 3011 3013 3014 3014
3044 3042 3040 3037 3035 3032 3030 3027 3024 3022 3020 3016 3014 3013 3011 3009 3007 3006 3005 3005 3004 3004 3004 3004 3005 3005 3006
3038 3036 3034 3031 3029 3026 3023 3020 3018 3016 3013 3010 3007 3005 3004 3003 3001 2999 2998 2997 2997 2997 2998 2998 2998 2999 3000
3032 3030 3028 3025 3022 3020 3017 3014 3011 3009 3006 3004 3001 2998 2997 2997 2995 2993 2992 2992 2991 2991 2991 2991 2991 2991 2992
3026 3024 3022 3019 3017 3013 3011 3008 3005 3003 3000 2999 2995 2993 2991 2989 2988 2986 2985 2984 2983 2982 2982 2982 2982 2981 2983
3020 3018 3016 3013 3010 3007 3005 3002 2999 2996 2994 2991 2989 2986 2984 2982 2981 2978 2976 2975 2974 2973 2972 2971 2971 2971 2972
3014 3012 3009 3007 3004 3002 2999 2996 2992 2990 2987 2984 2982 2979 2977 2976 2975 2973 2969 2965 2963 2962 2962 2962 2962 2961 2962
3008 3006 3004 3001 2998 2995 2993 2990 2986 2982 2979 2976 2973 2971 2969 2967 2966 2965 2961 2959 2956 2953 2950 2950 2951 2950 2951
3002 3000 2997 2994 2991 2988 2986 2983 2980 2975 2972 2969 2966 2963 2961 2958 2957 2956 2951 2949 2948 2944 2941 2941 2940 2940 2940
2996 2994 2991 2988 2985 2981 2978 2976 2973 2969 2965 2961 2956 2952 2951 2950 2948 2945 2944 2941 2936 2934 2932 2931 2931 2930 2929
2989 2987 2984 2981 2978 2974 2971 2968 2965 2961 2957 2953 2949 2945 2943 2943 2938 2936 2934 2931 2927 2925 2923 2921 2923 2921 2919
2982 2979 2977 2974 2971 2968 2964 2961 2958 2954 2950 2945 2941 2936 2934 2932 2930 2928 2926 2922 2918 2916 2913 2912 2911 2914 2910